This is the latest recevied weather packets stored in our database for station/object DL8NDG-13. If no packets are shown the sender has not sent any weather packets the latest 10 day(s).
| Time | Temp. | Humidity | Pressure | Rain* | Wind** | Luminosity | Snow |
|---|---|---|---|---|---|---|---|
| 1777579239 | 10° C | 44% | 1027.4 hPa | 0 mm | - | 0 W/m² | - |
| 1777575650 | 12.22° C | 36% | 1027 hPa | 0 mm | - | 0 W/m² | - |
| 1777573832 | 13.33° C | 31% | 1026.7 hPa | 0 mm | - | 5 W/m² | - |
| 1777569327 | 16.11° C | 24% | 1026.4 hPa | 0 mm | - | 225 W/m² | - |
| 1777567526 | 16.67° C | 24% | 1026.3 hPa | 0 mm | - | 334 W/m² | - |
| 1777561217 | 17.78° C | 25% | 1026.3 hPa | 0 mm | - | 612 W/m² | - |
| 1777559418 | 17.78° C | 25% | 1026.6 hPa | 0 mm | - | 680 W/m² | - |
| 1777548622 | 15° C | 27% | 1028.2 hPa | 0 mm | - | 860 W/m² | - |
| 1777545013 | 14.44° C | 27% | 1028.6 hPa | 0 mm | - | 846 W/m² | - |
| 1777529721 | 5.56° C | 49% | 1029.4 hPa | 0 mm | - | 33 W/m² | - |
| 1777526121 | 3.33° C | 57% | 1029.2 hPa | 0 mm | - | 25 W/m² | - |
| 1777523406 | 2.22° C | 59% | 1029 hPa | 0 mm | - | 14 W/m² | - |
| 1777521669 | 2.78° C | 56% | 1028.5 hPa | 0 mm | - | 0 W/m² | - |
| 1777503610 | 7.22° C | 43% | 1027.1 hPa | 0 mm | - | 0 W/m² | - |
| 1777498257 | 8.89° C | 41% | 1026.4 hPa | 0 mm | - | 0 W/m² | - |
| 1777491039 | 10.56° C | 45% | 1024.8 hPa | 0 mm | - | 0 W/m² | - |
| 1777486530 | 12.78° C | 38% | 1023.3 hPa | 0 mm | - | 12 W/m² | - |
| 1777483840 | 14.44° C | 37% | 1022.6 hPa | 0 mm | - | 135 W/m² | - |
| 1777478417 | 17.78° C | 30% | 1022 hPa | 0 mm | - | 446 W/m² | - |
| 1777473920 | 17.78° C | 29% | 1022 hPa | 0 mm | - | 638 W/m² | - |
| 1777471210 | 17.78° C | 30% | 1022.2 hPa | 0 mm | - | 722 W/m² | - |
| 1777464058 | 17.22° C | 29% | 1022.4 hPa | 0 mm | - | 844 W/m² | - |
| 1777459554 | 16.67° C | 33% | 1022.7 hPa | 0 mm | - | 840 W/m² | - |
| 1777451412 | 13.33° C | 40% | 1022.6 hPa | 0 mm | - | 51 W/m² | - |
| 1777450510 | 12.78° C | 39% | 1022.6 hPa | 0 mm | - | 49 W/m² | - |
* Rain latest hour (hover to see other rain measurements)
** Current wind speed in m/s (hover to see current wind gust speed)